Regional Weather Roundup
Issued by NWS Grand Forks, ND

Home | Current Version | Previous Version | Graphics & Text | Print | Product List | Glossary On
Versions: 1 2 3 4 5 6 7 8 9 10 11 12 13 14 15 16 17 18 19 20 21 22 23 24 25 26 27 28 29 30 31 32 33 34 35 36 37 38 39 40 41 42 43 44 45 46 47 48 49 50
000
ASUS43 KFGF 200431
RWRFGF
PRAIRIE TO PINES  WEATHER ROUNDUP
NATIONAL WEATHER SERVICE EASTERN NORTH DAKOTA/GRAND FORKS ND
1000 PM CST FRI DEC 19 2014

 **SATELLITE DATA USED TO AUGMENT SKY COVER AT AUTOMATED STATIONS**
 *****  WEATHER ACROSS EASTERN NORTH DAKOTA  *****

CITY           SKY/WX    TMP DP  RH WIND       PRES   REMARKS
GRAND FORKS    CLOUDY    30  28  92 S7        29.99F WCI  23
GRAND FRKS AFB CLOUDY    29  29 100 S6        29.99S WCI  23
GRAND FRKS NWS   N/A     30 N/A N/A SW7         N/A  WCI  23
DEVILS LAKE    CLOUDY    27  19  74 W6        29.94S WCI  20
FARGO          CLOUDY    32  28  85 S9        30.02R WCI  24
WAHPETON ARPT  CLOUDY    32  28  86 S10       30.03S WCI  24
$$

 ***** WEATHER ACROSS CENTRAL AND WESTERN NORTH DAKOTA  *****

CITY           SKY/WX    TMP DP  RH WIND       PRES   REMARKS
BISMARCK       CLEAR     19  18  95 E3        29.95S
MINOT          CLOUDY    25  22  88 S8        29.93S FOG     WCI  16
JAMESTOWN      FOG       24  23  96 SW5       29.96R VSB 1/4 WCI  18
MINOT AFB      FRZ DRZL  25  25 100 SW5       29.93S FOG     WCI  19
GARRISON         N/A     28  26  92 CALM      29.93R
WILLISTON      CLOUDY    18  15  88 CALM      29.91S FOG
DICKINSON      CLEAR     24  19  81 S6        29.87F WCI  17
HETTINGER      CLEAR     19  16  88 CALM      29.91S
$$

 *****  OTHER AIRPORT OBSERVATIONS IN OUR AREA  *****

CITY           SKY/WX    TMP DP  RH WIND       PRES   REMARKS
WALHALLA         N/A     27  27 100 CALM      30.00S FOG
GRAFTON AIRPOR NOT AVBL
VALLEY CITY AR CLOUDY    27  27 100 SW9       29.97S FOG     WCI  17
CANDO          CLOUDY    25  25 100 CALM      29.97R FOG
CAVALIER APRT  FOG       27  27 100 CALM      30.00S VSB 1/4
GWINNER        CLOUDY    32  32 100 MISG      30.00F
SHEYENNE NWR     N/A     31  29  92 SW12      29.95  WCI  22
ROLLA          CLOUDY    25  25 100 SW6       29.94F WCI  18
 ***** THE ABOVE OBSERVATIONS ARE NON NWS ARE NOT QUALITY
       CONTROLLED AND MAY MIS-REPORT RAIN FOR SNOW...
$$

  *****  WEATHER ACROSS NORTHERN MINNESOTA  *****

CITY           SKY/WX    TMP DP  RH WIND       PRES   REMARKS
FLAG ISLAND    MIX PCPN  25  23  93 S15       30.04S WCI  12
WARROAD        CLOUDY    25  21  86 SE7       30.04S FOG     WCI  17
ROSEAU         CLOUDY    27  21  80 SE6       30.03S FOG     WCI  20
HALLOCK        CLOUDY    28  27  93 CALM      30.00S FOG
THF RVR FALLS  CLOUDY    27  27 100 SE9       30.01S WCI  17
BAUDETTE       CLOUDY    25  22  88 SE6       30.05S WCI  18
WASKISH        LGT SNOW  25  25 100 CALM      30.05F
CROOKSTON      CLOUDY    30  28  93 S12       30.02S FOG     WCI  21
STEPHEN NDAWN    N/A     28  28 100 SE7         N/A  WCI  21
GREENBUSH NDAW   N/A     27  27 100 SE8         N/A  WCI  18
$$
  *****  WEATHER ACROSS CENTRAL AND WEST MINNESOTA  *****

CITY           SKY/WX    TMP DP  RH WIND       PRES   REMARKS
FOSSTON        CLOUDY    27  25  93 S8        30.01F FOG     WCI  18
BEMIDJI        LGT SNOW  25  24  96 SE8       30.02F WCI  16
PARK RAPIDS    FOG       28  27  96 S10       30.03S VSB 3/4 WCI  19
ELBOW LAKE     CLOUDY    30  29  96 S14       30.04S FOG     WCI  19
WADENA         CLOUDY    28  28 100 S6        30.04F FOG     WCI  22
DETROIT LAKES  MIX PCPN  30  30 100 S13       30.02F WCI  20
MOORHEAD       CLOUDY    30  30 100 S12       30.03S FOG     WCI  21
FERGUS FALLS   CLOUDY    30  28  93 S14       30.06S FOG     WCI  20
MORRIS MN      CLOUDY    30  28  93 S12       30.04F FOG     WCI  21
STAPLES        CLOUDY    27  27 100 SE5       30.06S FOG     WCI  21
$$
  *****  WEATHER ELSEWHERE ACROSS MINNESOTA  *****

CITY           SKY/WX    TMP DP  RH WIND       PRES   REMARKS
DULUTH         LGT SNOW  25  22  88 SE6       30.14S FOG     WCI  18
INTRNTL FALLS  LGT SNOW  24  21  88 SE6       30.08F FOG     WCI  17
ELY            LGT SNOW  23  21  93 SE3       30.12S
CLOQUET        CLOUDY    25  21  86 CALM      30.14S
WHEATON        CLOUDY    28  27  93 SE7       30.06S FOG     WCI  21
BRAINERD       CLOUDY    26  25  96 S8        30.09F FOG     WCI  18
HIBBING        CLOUDY    25  22  88 S8        30.11S FOG     WCI  16
ALEXANDRIA     CLOUDY    30  28  92 S13       30.06S WCI  20
SAINT CLOUD    CLOUDY    31  27  85 SE12      30.12S FOG     WCI  22
MINNEAPOLIS    CLOUDY    29  24  82 SE8       30.18S HAZE    WCI  21
$$

  *****  WEATHER ACROSS SOUTH DAKOTA  *****

CITY           SKY/WX    TMP DP  RH WIND       PRES   REMARKS
SIOUX FALLS    CLOUDY    31  28  89 S13       30.07F WCI  21
BROOKINGS      NOT AVBL
WATERTOWN      CLOUDY    29  28  96 S14       30.01S FOG     WCI  18
HURON          CLOUDY    29  26  89 S15       30.03S FOG     WCI  18
SISSETON         N/A     31  28  89 SW7       30.01F WCI  24
ABERDEEN       CLOUDY    29  26  89 S10       30.01S WCI  20
MITCHELL       CLOUDY    30  27  88 S14       30.04F WCI  19
PIERRE         CLEAR     16  15  96 E5        29.96S FOG     WCI   9
MOBRIDGE       CLEAR     23  21  92 E8        29.92S WCI  14
RAPID CITY     PTCLDY    21  18  88 W5        29.91F WCI  15
$$

  *****  SOME WEATHER IN NEARBY STATES *****

CITY           SKY/WX    TMP DP  RH WIND       PRES   REMARKS
GLASGOW MT     CLOUDY    29  24  82 E12       29.84R WCI  19
GREAT FALLS MT MOCLDY    38  30  73 SW14      29.82R
CHEYENNE WY    PTCLDY    29  14  53 SW10      29.98F WCI  20
SCOTTSBLUFF NE CLEAR     21  16  81 N7        29.98F WCI  12
OMAHA NE       CLOUDY    32  29  88 S13       30.15F FOG     WCI  22
DES MOINES IA  FRZ DRZL  32  29  88 SE8       30.19F FOG     WCI  25
DAVENPORT IA   CLOUDY    28  22  78 SE7       30.26S WCI  21
CHICAGO IL     CLOUDY    29  21  72 N3        30.26S
EAU CLAIRE WI  CLOUDY    27  20  75 SE6       30.21S WCI  20
LA CROSSE WI   CLOUDY    30  21  69 S8        30.24S WCI  22
$$

  *****  SOME NATIONAL WEATHER *****

CITY           SKY/WX    TMP DP  RH WIND       PRES   REMARKS
LA GUARDIA NY  PTCLDY    32  22  66 NW10      30.18R WCI  24
RALEIGH NC     MOCLDY    38  28  67 CALM      30.20S
ATLANTA GA     LGT RAIN  44  33  65 NW6       30.17R
NEW ORLEANS LA LGT RAIN  51  48  89 NE13      30.08F
OKLAHOMA CITY  CLOUDY    41  36  82 CALM      30.21S
ALBUQUERQUE NM PTCLDY    36  24  62 N7        30.19S
SALT LAKE CITY CLOUDY    42  30  62 SW3       30.13R
LOS ANGELES CA MOCLDY    60  51  72 NW7       30.17F
BOISE ID       CLOUDY    39  36  89 E6        30.08S
SEATTLE WA     CLOUDY    48  36  63 SE9       29.94F
$$

*** WEATHER ACROSS MANITOBA...SASKATCHEWAN AND ONTARIO ***
                ***ONTARIO***

CITY           SKY/WX    TMP DP  RH WIND       PRES   REMARKS
GERALDTON      PTCLDY    -8 -11  84 NW3       30.24R
THUNDER BAY    CLOUDY    21  19  93 CALM      30.22
SIOUX LOOKOUT  FLURRIES  21  19  93 S6        30.10  WCI  14
TORONTO        MOCLDY    27  19  74 N10       30.28R WCI  17
BIG TROUT LK   CLOUDY    18  16  93 SW6       30.12S WCI   9
PICKLE LAKE    NOT AVBL
DRYDEN         FLURRIES  21  19  93 S7        30.08S WCI  13
KENORA         LGT SNOW  23  21  93 S8        30.05  FOG     WCI  14
$$
                *** MANITOBA***

CITY           SKY/WX    TMP DP  RH WIND       PRES   REMARKS
BRANDON        CLOUDY    23  21  93 E6        29.97S FOG     WCI  16
DAUPHIN        CLOUDY    21  19  93 S3        30.00S
ISLAND LAKE    FLURRIES  18  14  86 SE3       30.06F
PILOT MOUND      N/A     25  25 100 CALM        N/A
THE PAS        CLOUDY    18  16  93 SE5       29.99S FOG     WCI  11
THOMPSON       FLURRIES  16  14  93 S2        30.01S
WINNIPEG       CLOUDY    27  25  93 S6        30.03  FOG     WCI  20
LYNN LAKE      CLOUDY    14  14 100 S7        29.93F FOG     WCI   4
CHURCHILL      FLURRIES  14  10  85 NW15      29.97R WCI  -1
GILLAM         LGT SNOW  12  10  92 SW6       30.03S WCI   3
$$
                ***SASKATCHEWAN***

CITY           SKY/WX    TMP DP  RH WIND       PRES   REMARKS
ESTEVAN        FOG       19  18  93 SW2       29.92S VSB 1/4
KINDERSLEY     CLOUDY    21  19  93 SE13      29.70  WCI   9
LLOYDMINSTER   CRYSTALS  10   9  92 E7        29.72F WCI   0
PRINCE ALBERT  LGT SNOW  16  16 100 SE8       29.91S FOG     WCI   5
REGINA         FOG       14  12  92 SE10      29.90S VSB 1/2 WCI   1
YORKTON        CLOUDY    21  21 100 SE3       29.93F
N. BATTLEFORD  LGT SNOW  14  14 100 SE17G23   29.81F WCI  -3
LA RONGE       FOG       14  12  92 SE7       29.91  VSB 1   WCI   4
SASKATOON      SNOW      18  16  93 SE12      29.88S VSB 1/2 WCI   5
SWIFT CURRENT  CLOUDY    28  25  86 S16       29.74F WCI  17
$$
NOTE: THESE ARE AUTOMATED STATIONS WITH LIMITED QUALITY CONTROL
      "FAIR" INDICATES FEW OR NO CLOUDS BELOW 12,000 FEET WITH NO
      SIGNIFICANT WEATHER AND/OR OBSTRUCTIONS TO VISIBILITY.
      SKY/WX - SKY CONDITION AND SIGNIFICANT WEATHER.
      TMP - AIR TEMPERATURE.    DP   - DEWPOINT TEMPERATURE.
      RH  - RELATIVE HUMIDITY.  PRES - PRESSURE.
      HX  - HEAT INDEX.         WCI  - WIND CHILL INDEX.
$


USA.gov is the U.S. government's official web portal to all federal, state and local government web resources and services.